Waterman — PIMU — position and weather

sailwx.info

Track history (hours):
 
Tides and Currents Weather Stations Pressure Air Temp Water Temp Dewpoint Dewpoint Depression Visibility Wind Speed Wind Dir Waves Ship Positions

Waterman

Last reported at 2014-Nov-24 05:33 UTC. Time now 2014-Nov-24 06:58 UTC.
Position N 53°27' E 006°50'.

Length 26 m; draft 3.2 m.

Type: Tug. MMSI: 245128000.

Date/timePositionNaut miles runAvg speedWind from/ knotsBaromVisibWave heightAir tempDewpointWater temp
2014-Nov-24 05:33N 53°27' E 006°50'0 0.0
2014-Nov-24 04:34N 53°27' E 006°50'0 0.0
2014-Nov-24 03:33N 53°27' E 006°50'0 0.0
2014-Nov-24 02:34N 53°27' E 006°50'0 0.0
2014-Nov-24 01:34N 53°27' E 006°50'0 0.0
2014-Nov-24 00:33N 53°27' E 006°50'0 0.0
2014-Nov-23 23:34N 53°27' E 006°50'0 0.0
2014-Nov-23 22:33N 53°27' E 006°50'0 0.0
2014-Nov-23 21:33N 53°27' E 006°50'0 0.0
2014-Nov-23 20:33N 53°27' E 006°50'0 0.0
2014-Nov-23 19:34N 53°27' E 006°50'0 0.0
2014-Nov-23 18:33N 53°27' E 006°50'0 0.0
2014-Nov-23 17:33N 53°27' E 006°50'0 0.0
2014-Nov-23 16:33N 53°27' E 006°50'0 0.0
2014-Nov-23 15:33N 53°27' E 006°50'0 0.0
2014-Nov-23 14:33N 53°27' E 006°50'0 0.0
2014-Nov-23 13:33N 53°27' E 006°50'0 0.0
2014-Nov-23 12:33N 53°27' E 006°50'0 0.0
2014-Nov-23 11:33N 53°27' E 006°50'1 1.3
2014-Nov-23 10:33N 53°28' E 006°50'8 7.9
2014-Nov-23 09:33N 53°34' E 006°40'33 5.3
2014-Nov-23 03:18N 53°52' E 007°27'6 8.2
2014-Nov-23 02:33N 53°53' E 007°37'8 7.7
2014-Nov-23 01:33N 53°56' E 007°49'7 7.0
2014-Nov-23 00:33N 53°58' E 008°00'6 6.5
2014-Nov-22 23:33N 54°00' E 008°11'7 6.6
2014-Nov-22 22:33N 53°60' E 008°22'6 5.8
2014-Nov-22 21:33N 53°58' E 008°31'5 5.2
2014-Nov-22 20:33N 53°56' E 008°40'7 7.4
2014-Nov-22 19:33N 53°51' E 008°48'1010.0
2014-Nov-22 18:33N 53°52' E 009°04'3 3.0
2014-Nov-22 17:33N 53°54' E 009°09'6 5.8
2014-Nov-22 16:33N 53°58' E 009°15'7 7.0
2014-Nov-22 15:33N 54°05' E 009°19'8 6.9
2014-Nov-22 14:26N 54°11' E 009°27'7 6.9
2014-Nov-22 13:27N 54°15' E 009°37'19 6.1
2014-Nov-22 10:18N 54°22' E 010°07'1 1.2
2014-Nov-22 09:33N 54°22' E 010°08'0 0.4
2014-Nov-22 08:33N 54°22' E 010°09'0 0.0
2014-Nov-22 07:28N 54°22' E 010°09'0 0.0
2014-Nov-22 06:28N 54°22' E 010°09'0 0.0
2014-Nov-22 05:28N 54°22' E 010°09'0 0.0
2014-Nov-22 04:22N 54°22' E 010°09'0 0.0
2014-Nov-22 03:28N 54°22' E 010°09'0 0.0
2014-Nov-22 02:28N 54°22' E 010°09'0 0.0
2014-Nov-22 01:28N 54°22' E 010°09'0 0.0
2014-Nov-22 00:28N 54°22' E 010°09'0 0.0
2014-Nov-21 23:28N 54°22' E 010°09'0 0.0
2014-Nov-21 22:22N 54°22' E 010°09'0 0.0
2014-Nov-21 21:28N 54°22' E 010°09'0 0.0
2014-Nov-21 20:22N 54°22' E 010°09'0 0.0
2014-Nov-21 19:28N 54°22' E 010°09'0 0.0
2014-Nov-21 18:28N 54°22' E 010°09'0 0.0
2014-Nov-21 17:28N 54°22' E 010°09'0 0.0
2014-Nov-21 16:31N 54°22' E 010°09'0 0.0
2014-Nov-21 15:31N 54°22' E 010°09'0 0.0
2014-Nov-21 14:33N 54°22' E 010°09'8 6.5
2014-Nov-21 13:19N 54°29' E 010°16'6 7.4
2014-Nov-21 12:33N 54°31' E 010°24'38 7.5
2014-Nov-21 07:28N 54°31' E 011°30'7 7.2
2014-Nov-21 06:33N 54°28' E 011°40'7 7.0
2014-Nov-21 05:32N 54°26' E 011°52'7 7.0
2014-Nov-21 04:33N 54°26' E 012°03'7 6.6
2014-Nov-21 03:33N 54°31' E 012°12'201 6.9
2014-Nov-19 22:30N 54°55' E 017°57'6 6.8
2014-Nov-19 21:33N 54°55' E 018°08'7 6.9
2014-Nov-19 20:33N 54°56' E 018°20'7 7.1
2014-Nov-19 19:33N 54°57' E 018°32'7 7.2
2014-Nov-19 18:33N 54°53' E 018°43'7 7.4
2014-Nov-19 17:33N 54°48' E 018°53'7 6.9
2014-Nov-19 16:33N 54°42' E 018°59'7 7.2
2014-Nov-19 15:33N 54°35' E 018°54'7 7.0
2014-Nov-19 14:33N 54°30' E 018°46'6 6.3
2014-Nov-19 13:33N 54°25' E 018°39'4 3.6
2014-Nov-19 12:33N 54°22' E 018°39'0 0.3
2014-Nov-19 11:33N 54°22' E 018°39'0 0.0
2014-Nov-19 10:33N 54°22' E 018°39'0 0.0
2014-Nov-19 09:33N 54°22' E 018°39'0 0.0
2014-Nov-19 08:33N 54°22' E 018°39'0 0.0
2014-Nov-19 07:33N 54°22' E 018°39'0 0.0
2014-Nov-19 06:33N 54°22' E 018°39'0 0.0
2014-Nov-19 05:33N 54°22' E 018°39'0 0.0
2014-Nov-19 04:33N 54°22' E 018°39'0 0.0
2014-Nov-19 03:33N 54°22' E 018°39'0 0.0
2014-Nov-19 02:33N 54°22' E 018°39'0 0.0
2014-Nov-19 01:33N 54°22' E 018°39'0 0.0
2014-Nov-19 00:33N 54°22' E 018°39'0 0.0
2014-Nov-18 23:33N 54°22' E 018°39'0 0.0
2014-Nov-18 22:33N 54°22' E 018°39'0 0.0
2014-Nov-18 21:33N 54°22' E 018°39'0 0.0
2014-Nov-18 20:33N 54°22' E 018°39'0 0.0
2014-Nov-18 19:33N 54°22' E 018°39'0 0.0
2014-Nov-18 18:33N 54°22' E 018°39'0 0.0
2014-Nov-18 17:33N 54°22' E 018°39'0 0.0
2014-Nov-18 16:33N 54°22' E 018°39'0 0.0
2014-Nov-18 15:33N 54°22' E 018°39'0 0.0
2014-Nov-18 14:33N 54°22' E 018°39'0 0.0
2014-Nov-18 13:33N 54°22' E 018°39'0 0.0
2014-Nov-18 12:33N 54°22' E 018°39'0 0.0
2014-Nov-18 11:33N 54°22' E 018°39'0 0.0
2014-Nov-18 10:33N 54°22' E 018°39'0 0.0
2014-Nov-18 09:33N 54°22' E 018°39'0 0.0
2014-Nov-18 08:33N 54°22' E 018°39'0 0.0
2014-Nov-18 07:33N 54°22' E 018°39'0 0.0
2014-Nov-18 06:33N 54°22' E 018°39'0 0.0
2014-Nov-18 05:33N 54°22' E 018°39'0 0.0
2014-Nov-18 04:33N 54°22' E 018°39'0 0.0
2014-Nov-18 03:33N 54°22' E 018°39'0 0.0
2014-Nov-18 02:33N 54°22' E 018°39'0 0.0
2014-Nov-18 01:33N 54°22' E 018°39'0 0.0
2014-Nov-18 00:33N 54°22' E 018°39'0 0.0
2014-Nov-17 23:33N 54°22' E 018°39'0 0.0
2014-Nov-17 22:33N 54°22' E 018°39'0 0.0
2014-Nov-17 21:33N 54°22' E 018°39'0 0.0
2014-Nov-17 20:33N 54°22' E 018°39'0 0.0
2014-Nov-17 19:33N 54°22' E 018°39'0 0.0
2014-Nov-17 18:33N 54°22' E 018°39'0 0.0
2014-Nov-17 17:33N 54°22' E 018°39'0 0.0
2014-Nov-17 16:33N 54°22' E 018°39'0 0.0
2014-Nov-17 15:33N 54°22' E 018°39'0 0.0
2014-Nov-17 14:33N 54°22' E 018°39'0 0.0
2014-Nov-17 13:33N 54°22' E 018°39'0 0.0
2014-Nov-17 12:33N 54°22' E 018°39'0 0.0
2014-Nov-17 11:33N 54°22' E 018°39'0 0.0
2014-Nov-17 10:33N 54°22' E 018°39'0 0.0
2014-Nov-17 09:33N 54°22' E 018°39'0 0.0
2014-Nov-17 08:33N 54°22' E 018°39'0 0.0
2014-Nov-17 07:33N 54°22' E 018°39'0 0.0
2014-Nov-17 06:33N 54°22' E 018°39'0 0.0
2014-Nov-17 05:33N 54°22' E 018°39'0 0.0
2014-Nov-17 04:33N 54°22' E 018°39'0 0.0
2014-Nov-17 03:33N 54°22' E 018°39'0 0.0
2014-Nov-17 02:33N 54°22' E 018°39'0 0.0
2014-Nov-17 01:33N 54°22' E 018°39'0 0.0
2014-Nov-17 00:33N 54°22' E 018°39'0 0.0
2014-Nov-16 23:33N 54°22' E 018°39'0 0.0
2014-Nov-16 22:33N 54°22' E 018°39'0 0.0
2014-Nov-16 21:33N 54°22' E 018°39'0 0.0
2014-Nov-16 20:33N 54°22' E 018°39'0 0.0
2014-Nov-16 19:33N 54°22' E 018°39'0 0.0
2014-Nov-16 18:33N 54°22' E 018°39'0 0.0
2014-Nov-16 17:33N 54°22' E 018°39'0 0.0
2014-Nov-16 16:33N 54°22' E 018°39'0 0.0
2014-Nov-16 15:33N 54°22' E 018°39'0 0.0
2014-Nov-16 14:33N 54°22' E 018°39'0 0.0
2014-Nov-16 13:33N 54°22' E 018°39'0 0.0
2014-Nov-16 12:33N 54°22' E 018°39'0 0.0
2014-Nov-16 11:33N 54°22' E 018°39'0 0.0
2014-Nov-16 10:33N 54°22' E 018°39'0 0.0
2014-Nov-16 09:33N 54°22' E 018°39'0 0.0
2014-Nov-16 08:33N 54°22' E 018°39'0 0.0
2014-Nov-16 07:33N 54°22' E 018°39'0 0.0
2014-Nov-16 06:33N 54°22' E 018°39'0 0.0
2014-Nov-16 05:33N 54°22' E 018°39'0 0.0
2014-Nov-16 04:33N 54°22' E 018°39'0 0.0
2014-Nov-16 03:33N 54°22' E 018°39'0 0.0
2014-Nov-16 02:33N 54°22' E 018°39'0 0.0
2014-Nov-16 01:33N 54°22' E 018°39'0 0.0
2014-Nov-16 00:33N 54°22' E 018°39'0 0.0
2014-Nov-15 23:33N 54°22' E 018°39'0 0.0
2014-Nov-15 22:33N 54°22' E 018°39'0 0.0
2014-Nov-15 21:33N 54°22' E 018°39'0 0.0
2014-Nov-15 20:33N 54°22' E 018°39'0 0.0
2014-Nov-15 19:33N 54°22' E 018°39'0 0.0
2014-Nov-15 18:33N 54°22' E 018°39'0 0.0
2014-Nov-15 17:33N 54°22' E 018°39'0 0.0
2014-Nov-15 16:33N 54°22' E 018°39'0 0.0
2014-Nov-15 15:33N 54°22' E 018°39'0 0.0
2014-Nov-15 14:33N 54°22' E 018°39'0 0.0
2014-Nov-15 13:33N 54°22' E 018°39'0 0.0
2014-Nov-15 12:33N 54°22' E 018°39'0 0.0
2014-Nov-15 11:33N 54°22' E 018°39'0 0.0
2014-Nov-15 10:33N 54°22' E 018°39'0 0.0
2014-Nov-15 09:33N 54°22' E 018°39'0 0.0
2014-Nov-15 08:33N 54°22' E 018°39'0 0.0
2014-Nov-15 07:33N 54°22' E 018°39'0 0.0
2014-Nov-15 06:33N 54°22' E 018°39'0 0.0
2014-Nov-15 05:33N 54°22' E 018°39'0 0.0
2014-Nov-15 04:33N 54°22' E 018°39'0 0.0
2014-Nov-15 03:33N 54°22' E 018°39'0 0.0
2014-Nov-15 02:33N 54°22' E 018°39'0 0.0
2014-Nov-15 01:34N 54°22' E 018°39'0 0.0
2014-Nov-15 00:33N 54°22' E 018°39'0 0.0
2014-Nov-14 23:33N 54°22' E 018°39'0 0.0
2014-Nov-14 22:33N 54°22' E 018°39'0 0.0
2014-Nov-14 21:33N 54°22' E 018°39'0 0.0
2014-Nov-14 20:33N 54°22' E 018°39'0 0.0
2014-Nov-14 19:33N 54°22' E 018°39'0 0.0
2014-Nov-14 18:33N 54°22' E 018°39'0 0.0
2014-Nov-14 17:33N 54°22' E 018°39'0 0.0
2014-Nov-14 16:34N 54°22' E 018°39'0 0.0
2014-Nov-14 15:33N 54°22' E 018°39'0 0.0
2014-Nov-14 14:33N 54°22' E 018°39'0 0.0
2014-Nov-14 12:34N 54°22' E 018°39'0 0.0
2014-Nov-14 11:33N 54°22' E 018°39'0 0.0
2014-Nov-14 10:33N 54°22' E 018°39'0 0.0
2014-Nov-14 09:34N 54°22' E 018°39'0 0.0
2014-Nov-14 08:34N 54°22' E 018°39'1 0.7
2014-Nov-14 07:33N 54°22' E 018°40'4 4.0
2014-Nov-14 06:33N 54°26' E 018°39'3 3.4
2014-Nov-14 05:33N 54°29' E 018°42'  
Track history (hours):
 
Tides and Currents Weather Stations Pressure Air Temp Water Temp Dewpoint Dewpoint Depression Visibility Wind Speed Wind Dir Waves Ship Positions

Waterman

Last reported at 2014-Nov-24 05:33 UTC. Time now 2014-Nov-24 06:58 UTC.
Position N 53°27' E 006°50'.

Length 26 m; draft 3.2 m.

Type: Tug. MMSI: 245128000.

Date/timePositionNaut miles runAvg speedWind from/ knotsBaromVisibWave heightAir tempDewpointWater temp
2014-Nov-24 05:33N 53°27' E 006°50'0 0.0
2014-Nov-24 04:34N 53°27' E 006°50'0 0.0
2014-Nov-24 03:33N 53°27' E 006°50'0 0.0
2014-Nov-24 02:34N 53°27' E 006°50'0 0.0
2014-Nov-24 01:34N 53°27' E 006°50'0 0.0
2014-Nov-24 00:33N 53°27' E 006°50'0 0.0
2014-Nov-23 23:34N 53°27' E 006°50'0 0.0
2014-Nov-23 22:33N 53°27' E 006°50'0 0.0
2014-Nov-23 21:33N 53°27' E 006°50'0 0.0
2014-Nov-23 20:33N 53°27' E 006°50'0 0.0
2014-Nov-23 19:34N 53°27' E 006°50'0 0.0
2014-Nov-23 18:33N 53°27' E 006°50'0 0.0
2014-Nov-23 17:33N 53°27' E 006°50'0 0.0
2014-Nov-23 16:33N 53°27' E 006°50'0 0.0
2014-Nov-23 15:33N 53°27' E 006°50'0 0.0
2014-Nov-23 14:33N 53°27' E 006°50'0 0.0
2014-Nov-23 13:33N 53°27' E 006°50'0 0.0
2014-Nov-23 12:33N 53°27' E 006°50'0 0.0
2014-Nov-23 11:33N 53°27' E 006°50'1 1.3
2014-Nov-23 10:33N 53°28' E 006°50'8 7.9
2014-Nov-23 09:33N 53°34' E 006°40'33 5.3
2014-Nov-23 03:18N 53°52' E 007°27'6 8.2
2014-Nov-23 02:33N 53°53' E 007°37'8 7.7
2014-Nov-23 01:33N 53°56' E 007°49'7 7.0
2014-Nov-23 00:33N 53°58' E 008°00'6 6.5
2014-Nov-22 23:33N 54°00' E 008°11'7 6.6
2014-Nov-22 22:33N 53°60' E 008°22'6 5.8
2014-Nov-22 21:33N 53°58' E 008°31'5 5.2
2014-Nov-22 20:33N 53°56' E 008°40'7 7.4
2014-Nov-22 19:33N 53°51' E 008°48'1010.0
2014-Nov-22 18:33N 53°52' E 009°04'3 3.0
2014-Nov-22 17:33N 53°54' E 009°09'6 5.8
2014-Nov-22 16:33N 53°58' E 009°15'7 7.0
2014-Nov-22 15:33N 54°05' E 009°19'8 6.9
2014-Nov-22 14:26N 54°11' E 009°27'7 6.9
2014-Nov-22 13:27N 54°15' E 009°37'19 6.1
2014-Nov-22 10:18N 54°22' E 010°07'1 1.2
2014-Nov-22 09:33N 54°22' E 010°08'0 0.4
2014-Nov-22 08:33N 54°22' E 010°09'0 0.0
2014-Nov-22 07:28N 54°22' E 010°09'0 0.0
2014-Nov-22 06:28N 54°22' E 010°09'0 0.0
2014-Nov-22 05:28N 54°22' E 010°09'0 0.0
2014-Nov-22 04:22N 54°22' E 010°09'0 0.0
2014-Nov-22 03:28N 54°22' E 010°09'0 0.0
2014-Nov-22 02:28N 54°22' E 010°09'0 0.0
2014-Nov-22 01:28N 54°22' E 010°09'0 0.0
2014-Nov-22 00:28N 54°22' E 010°09'0 0.0
2014-Nov-21 23:28N 54°22' E 010°09'0 0.0
2014-Nov-21 22:22N 54°22' E 010°09'0 0.0
2014-Nov-21 21:28N 54°22' E 010°09'0 0.0
2014-Nov-21 20:22N 54°22' E 010°09'0 0.0
2014-Nov-21 19:28N 54°22' E 010°09'0 0.0
2014-Nov-21 18:28N 54°22' E 010°09'0 0.0
2014-Nov-21 17:28N 54°22' E 010°09'0 0.0
2014-Nov-21 16:31N 54°22' E 010°09'0 0.0
2014-Nov-21 15:31N 54°22' E 010°09'0 0.0
2014-Nov-21 14:33N 54°22' E 010°09'8 6.5
2014-Nov-21 13:19N 54°29' E 010°16'6 7.4
2014-Nov-21 12:33N 54°31' E 010°24'38 7.5
2014-Nov-21 07:28N 54°31' E 011°30'7 7.2
2014-Nov-21 06:33N 54°28' E 011°40'7 7.0
2014-Nov-21 05:32N 54°26' E 011°52'7 7.0
2014-Nov-21 04:33N 54°26' E 012°03'7 6.6
2014-Nov-21 03:33N 54°31' E 012°12'201 6.9
2014-Nov-19 22:30N 54°55' E 017°57'6 6.8
2014-Nov-19 21:33N 54°55' E 018°08'7 6.9
2014-Nov-19 20:33N 54°56' E 018°20'7 7.1
2014-Nov-19 19:33N 54°57' E 018°32'7 7.2
2014-Nov-19 18:33N 54°53' E 018°43'7 7.4
2014-Nov-19 17:33N 54°48' E 018°53'7 6.9
2014-Nov-19 16:33N 54°42' E 018°59'7 7.2
2014-Nov-19 15:33N 54°35' E 018°54'7 7.0
2014-Nov-19 14:33N 54°30' E 018°46'6 6.3
2014-Nov-19 13:33N 54°25' E 018°39'4 3.6
2014-Nov-19 12:33N 54°22' E 018°39'0 0.3
2014-Nov-19 11:33N 54°22' E 018°39'0 0.0
2014-Nov-19 10:33N 54°22' E 018°39'0 0.0
2014-Nov-19 09:33N 54°22' E 018°39'0 0.0
2014-Nov-19 08:33N 54°22' E 018°39'0 0.0
2014-Nov-19 07:33N 54°22' E 018°39'0 0.0
2014-Nov-19 06:33N 54°22' E 018°39'0 0.0
2014-Nov-19 05:33N 54°22' E 018°39'0 0.0
2014-Nov-19 04:33N 54°22' E 018°39'0 0.0
2014-Nov-19 03:33N 54°22' E 018°39'0 0.0
2014-Nov-19 02:33N 54°22' E 018°39'0 0.0
2014-Nov-19 01:33N 54°22' E 018°39'0 0.0
2014-Nov-19 00:33N 54°22' E 018°39'0 0.0
2014-Nov-18 23:33N 54°22' E 018°39'0 0.0
2014-Nov-18 22:33N 54°22' E 018°39'0 0.0
2014-Nov-18 21:33N 54°22' E 018°39'0 0.0
2014-Nov-18 20:33N 54°22' E 018°39'0 0.0
2014-Nov-18 19:33N 54°22' E 018°39'0 0.0
2014-Nov-18 18:33N 54°22' E 018°39'0 0.0
2014-Nov-18 17:33N 54°22' E 018°39'0 0.0
2014-Nov-18 16:33N 54°22' E 018°39'0 0.0
2014-Nov-18 15:33N 54°22' E 018°39'0 0.0
2014-Nov-18 14:33N 54°22' E 018°39'0 0.0
2014-Nov-18 13:33N 54°22' E 018°39'0 0.0
2014-Nov-18 12:33N 54°22' E 018°39'0 0.0
2014-Nov-18 11:33N 54°22' E 018°39'0 0.0
2014-Nov-18 10:33N 54°22' E 018°39'0 0.0
2014-Nov-18 09:33N 54°22' E 018°39'0 0.0
2014-Nov-18 08:33N 54°22' E 018°39'0 0.0
2014-Nov-18 07:33N 54°22' E 018°39'0 0.0
2014-Nov-18 06:33N 54°22' E 018°39'0 0.0
2014-Nov-18 05:33N 54°22' E 018°39'0 0.0
2014-Nov-18 04:33N 54°22' E 018°39'0 0.0
2014-Nov-18 03:33N 54°22' E 018°39'0 0.0
2014-Nov-18 02:33N 54°22' E 018°39'0 0.0
2014-Nov-18 01:33N 54°22' E 018°39'0 0.0
2014-Nov-18 00:33N 54°22' E 018°39'0 0.0
2014-Nov-17 23:33N 54°22' E 018°39'0 0.0
2014-Nov-17 22:33N 54°22' E 018°39'0 0.0
2014-Nov-17 21:33N 54°22' E 018°39'0 0.0
2014-Nov-17 20:33N 54°22' E 018°39'0 0.0
2014-Nov-17 19:33N 54°22' E 018°39'0 0.0
2014-Nov-17 18:33N 54°22' E 018°39'0 0.0
2014-Nov-17 17:33N 54°22' E 018°39'0 0.0
2014-Nov-17 16:33N 54°22' E 018°39'0 0.0
2014-Nov-17 15:33N 54°22' E 018°39'0 0.0
2014-Nov-17 14:33N 54°22' E 018°39'0 0.0
2014-Nov-17 13:33N 54°22' E 018°39'0 0.0
2014-Nov-17 12:33N 54°22' E 018°39'0 0.0
2014-Nov-17 11:33N 54°22' E 018°39'0 0.0
2014-Nov-17 10:33N 54°22' E 018°39'0 0.0
2014-Nov-17 09:33N 54°22' E 018°39'0 0.0
2014-Nov-17 08:33N 54°22' E 018°39'0 0.0
2014-Nov-17 07:33N 54°22' E 018°39'0 0.0
2014-Nov-17 06:33N 54°22' E 018°39'0 0.0
2014-Nov-17 05:33N 54°22' E 018°39'0 0.0
2014-Nov-17 04:33N 54°22' E 018°39'0 0.0
2014-Nov-17 03:33N 54°22' E 018°39'0 0.0
2014-Nov-17 02:33N 54°22' E 018°39'0 0.0
2014-Nov-17 01:33N 54°22' E 018°39'0 0.0
2014-Nov-17 00:33N 54°22' E 018°39'0 0.0
2014-Nov-16 23:33N 54°22' E 018°39'0 0.0
2014-Nov-16 22:33N 54°22' E 018°39'0 0.0
2014-Nov-16 21:33N 54°22' E 018°39'0 0.0
2014-Nov-16 20:33N 54°22' E 018°39'0 0.0
2014-Nov-16 19:33N 54°22' E 018°39'0 0.0
2014-Nov-16 18:33N 54°22' E 018°39'0 0.0
2014-Nov-16 17:33N 54°22' E 018°39'0 0.0
2014-Nov-16 16:33N 54°22' E 018°39'0 0.0
2014-Nov-16 15:33N 54°22' E 018°39'0 0.0
2014-Nov-16 14:33N 54°22' E 018°39'0 0.0
2014-Nov-16 13:33N 54°22' E 018°39'0 0.0
2014-Nov-16 12:33N 54°22' E 018°39'0 0.0
2014-Nov-16 11:33N 54°22' E 018°39'0 0.0
2014-Nov-16 10:33N 54°22' E 018°39'0 0.0
2014-Nov-16 09:33N 54°22' E 018°39'0 0.0
2014-Nov-16 08:33N 54°22' E 018°39'0 0.0
2014-Nov-16 07:33N 54°22' E 018°39'0 0.0
2014-Nov-16 06:33N 54°22' E 018°39'0 0.0
2014-Nov-16 05:33N 54°22' E 018°39'0 0.0
2014-Nov-16 04:33N 54°22' E 018°39'0 0.0
2014-Nov-16 03:33N 54°22' E 018°39'0 0.0
2014-Nov-16 02:33N 54°22' E 018°39'0 0.0
2014-Nov-16 01:33N 54°22' E 018°39'0 0.0
2014-Nov-16 00:33N 54°22' E 018°39'0 0.0
2014-Nov-15 23:33N 54°22' E 018°39'0 0.0
2014-Nov-15 22:33N 54°22' E 018°39'0 0.0
2014-Nov-15 21:33N 54°22' E 018°39'0 0.0
2014-Nov-15 20:33N 54°22' E 018°39'0 0.0
2014-Nov-15 19:33N 54°22' E 018°39'0 0.0
2014-Nov-15 18:33N 54°22' E 018°39'0 0.0
2014-Nov-15 17:33N 54°22' E 018°39'0 0.0
2014-Nov-15 16:33N 54°22' E 018°39'0 0.0
2014-Nov-15 15:33N 54°22' E 018°39'0 0.0
2014-Nov-15 14:33N 54°22' E 018°39'0 0.0
2014-Nov-15 13:33N 54°22' E 018°39'0 0.0
2014-Nov-15 12:33N 54°22' E 018°39'0 0.0
2014-Nov-15 11:33N 54°22' E 018°39'0 0.0
2014-Nov-15 10:33N 54°22' E 018°39'0 0.0
2014-Nov-15 09:33N 54°22' E 018°39'0 0.0
2014-Nov-15 08:33N 54°22' E 018°39'0 0.0
2014-Nov-15 07:33N 54°22' E 018°39'0 0.0
2014-Nov-15 06:33N 54°22' E 018°39'0 0.0
2014-Nov-15 05:33N 54°22' E 018°39'0 0.0
2014-Nov-15 04:33N 54°22' E 018°39'0 0.0
2014-Nov-15 03:33N 54°22' E 018°39'0 0.0
2014-Nov-15 02:33N 54°22' E 018°39'0 0.0
2014-Nov-15 01:34N 54°22' E 018°39'0 0.0
2014-Nov-15 00:33N 54°22' E 018°39'0 0.0
2014-Nov-14 23:33N 54°22' E 018°39'0 0.0
2014-Nov-14 22:33N 54°22' E 018°39'0 0.0
2014-Nov-14 21:33N 54°22' E 018°39'0 0.0
2014-Nov-14 20:33N 54°22' E 018°39'0 0.0
2014-Nov-14 19:33N 54°22' E 018°39'0 0.0
2014-Nov-14 18:33N 54°22' E 018°39'0 0.0
2014-Nov-14 17:33N 54°22' E 018°39'0 0.0
2014-Nov-14 16:34N 54°22' E 018°39'0 0.0
2014-Nov-14 15:33N 54°22' E 018°39'0 0.0
2014-Nov-14 14:33N 54°22' E 018°39'0 0.0
2014-Nov-14 12:34N 54°22' E 018°39'0 0.0
2014-Nov-14 11:33N 54°22' E 018°39'0 0.0
2014-Nov-14 10:33N 54°22' E 018°39'0 0.0
2014-Nov-14 09:34N 54°22' E 018°39'0 0.0
2014-Nov-14 08:34N 54°22' E 018°39'1 0.7
2014-Nov-14 07:33N 54°22' E 018°40'4 4.0
2014-Nov-14 06:33N 54°26' E 018°39'3 3.4
2014-Nov-14 05:33N 54°29' E 018°42'  

Dump ship's entire track history